EDT,Max TemperatureF,Mean TemperatureF,Min TemperatureF,Max Dew PointF,MeanDew PointF,Min DewpointF,Max Humidity, Mean Humidity, Min Humidity, Max Sea Level PressureIn, Mean Sea Level PressureIn, Min Sea Level PressureIn, Max VisibilityMiles, Mean VisibilityMiles, Min VisibilityMiles, Max Wind SpeedMPH, Mean Wind SpeedMPH, Max Gust SpeedMPH,PrecipitationIn, CloudCover, Events, WindDirDegrees
2012-10-1,90,81,72,74,73,70,94,80,59,29.80,29.75,29.71,,,,17,7,24,0.00,,,178
2012-10-2,87,80,73,75,72,65,94,79,58,30.02,29.87,29.75,,,,17,5,24,0.58,,,207
2012-10-3,83,78,72,74,72,70,93,88,69,30.16,30.09,30.01,,,,8,2,12,1.97,,,28
2012-10-4,83,78,72,75,73,70,100,85,74,30.21,30.17,30.12,,,,8,2,15,0.00,,,55
2012-10-5,89,80,71,75,72,69,100,85,63,30.14,30.07,29.98,,,,13,2,20,0.34,,,47
2012-10-6,90,81,71,75,72,70,93,80,52,30.00,29.96,29.88,,,,9,2,12,0.07,,,12
2012-10-7,93,81,68,74,70,67,100,77,52,30.00,29.96,29.91,,,,9,1,25,0.16,,,5
2012-10-8,82,77,71,75,71,69,100,90,79,30.04,29.99,29.96,,,,7,2,16,0.22,,,106
2012-10-9,79,72,65,70,67,64,93,84,62,30.10,30.05,30.01,,,,9,4,21,0.00,,,38
2012-10-10,84,74,64,66,64,62,100,82,51,30.17,30.10,30.05,,,,9,2,,0.00,,,24
2012-10-11,85,72,59,63,60,57,93,73,43,30.22,30.17,30.12,,,,13,3,17,0.00,,,44
2012-10-12,86,72,58,65,61,56,93,70,44,30.24,30.19,30.14,,,,12,3,18,0.00,,,30
2012-10-13,86,74,61,65,63,59,100,75,51,30.25,30.19,30.14,,,,10,4,20,0.00,,,60
2012-10-14,91,79,67,72,67,60,100,76,40,30.17,30.09,30.02,,,,8,3,13,0.00,,,30
2012-10-15,86,75,64,73,68,63,100,81,48,30.01,29.92,29.84,,,,12,2,15,0.00,,,269
2012-10-16,82,70,58,69,56,48,97,66,33,29.93,29.88,29.84,,,,13,5,17,0.00,,,15
2012-10-17,78,68,58,65,60,55,93,80,62,29.94,29.88,29.82,,,,10,2,14,0.01,,,38
2012-10-18,85,73,60,69,65,58,100,80,55,29.88,29.85,29.81,,,,15,3,26,0.02,,,221
2012-10-19,84,76,67,70,62,48,97,71,33,29.90,29.85,29.81,,,,16,4,20,0.00,,,271
2012-10-20,81,66,51,57,49,37,93,59,21,29.99,29.92,29.88,,,,14,5,17,0.00,,,317
2012-10-21,82,65,47,54,50,46,93,67,33,30.11,30.05,29.99,,,,15,3,22,0.00,,,37
2012-10-22,84,68,51,63,57,48,96,72,49,30.15,30.10,30.05,,,,12,4,26,0.00,,,58
2012-10-23,86,71,56,64,60,53,100,72,47,30.11,30.07,30.02,,,,13,4,18,0.00,,,52
2012-10-24,86,74,62,66,64,62,100,77,51,30.10,30.03,29.97,,,,13,5,21,0.00,,,45
2012-10-25,88,76,63,69,66,62,100,78,46,29.99,29.93,29.87,,,,14,6,21,0.00,,,46
2012-10-26,84,76,68,67,65,58,93,73,51,29.89,29.82,29.75,,,,23,11,30,0.00,,,17
2012-10-27,77,70,63,61,59,55,84,69,60,29.74,29.70,29.67,,,,17,9,26,0.00,,,331
2012-10-28,65,58,50,58,52,46,93,78,67,29.85,29.78,29.73,,,,16,8,24,0.00,,,310
2012-10-29,66,55,43,46,38,32,89,59,31,29.91,29.84,29.77,,,,16,9,25,0.00,,,308
2012-10-30,64,53,41,39,33,27,62,46,29,29.96,29.89,29.85,,,,22,10,30,0.00,,,284
2012-10-31,71,56,41,52,42,35,89,60,31,30.05,29.99,29.95,,,,20,6,28,0.00,,,267